Location: Großenrode
(51.6680°N, 9.9074°E)
Time: 21:01:14
(UTC+00:00)

Daily predictions for brighter satellites

Satellite Brightness Start Highest point End
(mag) Time Altitude Azimuth Time Altitude Azimuth Time Altitude Azimuth
NOSS 3-4 (A) 4.4 15:41:00 10° NW 15:47:47 68° SW 15:55:36 10° SSE
NOSS 3-4 (C) 4.4 15:41:09 10° NW 15:47:53 68° SW 15:55:36 10° SSE
NOSS 3-3 (C) 4.2 15:44:46 10° WSW 15:50:27 69° NW 15:57:12 10° NE
NOSS 3-3 (A) 4.2 15:45:09 10° WSW 15:50:48 68° NW 15:57:32 10° NE
Cosmos 2151 3.0 15:46:57 10° N 15:51:12 60° ENE 15:55:25 10° SSE
Cosmos 2082 4.2 15:46:14 10° S 15:51:28 42° ESE 15:56:45 10° NE
Lacrosse 4 Rocket 1.8 15:50:17 10° NNW 15:54:28 43° NE 15:58:33 10° ESE
Cosmos-2242 4.5 15:52:14 10° SE 15:55:13 18° E 15:58:12 10° NE
Cosmos 2058 Rocket 3.4 15:53:06 10° SSE 15:57:21 47° E 16:01:36 10° NNE
Cosmos 2279 Rocket 4.0 15:52:39 10° N 15:58:56 72° ENE 16:05:08 10° SSE
SL-08 RB Rocket 3.7 15:55:15 10° SSE 15:59:43 88° ENE 16:04:17 10° NNW
Cosmos 1269 Rocket 4.2 15:56:11 10° NNW 16:01:29 79° WSW 16:06:46 10° SSE
Cosmos 1606 Rocket 4.0 15:59:02 10° SSW 16:03:28 68° WNW 16:07:54 10° N
Cosmos 1726 Rocket 3.7 15:59:52 10° S 16:04:19 86° W 16:08:46 10° N
CZ-2D R/B 3.0 16:01:29 10° SSE 16:05:09 73° ENE 16:08:50 10° N
Cosmos 1812 4.0 16:07:42 10° SE 16:10:25 20° E 16:13:10 10° NE
Meteor 1-27 4.5 16:05:17 10° SSW 16:10:54 74° WNW 16:16:30 10° N
YAOGAN 11 4.5 16:09:26 10° NNE 16:13:53 49° E 16:18:17 10° S
AQUARIUS 4.4 16:09:56 10° SE 16:14:11 45° ENE 16:18:27 10° N
USA 276 3.5 16:13:39 10° SSW 16:15:28 19° SSE 16:17:13 11° ESE
Cosmos 1437 Rocket 3.2 16:12:34 10° NNW 16:16:16 62° W 16:19:58 10° S
CZ-2C R/B 2.5 16:13:08 10° SSE 16:16:41 76° ENE 16:20:19 10° NNW
Cosmos 2263 Rocket 2.3 16:12:11 10° S 16:17:36 57° ESE 16:23:05 10° NE
Cosmos 1844 Rocket 4.3 16:15:37 10° SE 16:18:29 14° E 16:20:21 12° ENE
Nadezhda 4 Rocket 4.3 16:15:51 10° SSE 16:21:33 43° E 16:27:16 10° NNE
CORIOLIS 4.1 16:16:18 10° SSE 16:21:36 68° ENE 16:26:58 10° NNW
ERS-2 2.9 16:20:21 10° S 16:23:10 43° W 16:26:00 10° NNW
USA 307 3.6 16:20:13 10° WNW 16:23:58 48° SSW 16:27:39 10° SE
Cosmos 2082 Rocket 4.2 16:23:34 10° N 16:25:10 11° N 16:26:46 10° NNE
Cosmos 2227 Rocket 2.8 16:20:14 10° SW 16:25:47 55° NW 16:31:22 10° NNE
Meteor 1-20 Rocket 4.3 16:20:59 10° N 16:26:26 53° ENE 16:31:57 10° SSE
Cosmos 1140 Rocket 3.4 16:21:55 10° NNW 16:27:06 65° ENE 16:32:13 10° SE
YAOGAN 1 4.0 16:29:59 16° ENE 16:30:17 16° ENE 16:32:57 10° NNE
SAR-Lupe-2 4.2 16:26:53 10° S 16:30:25 61° WSW 16:34:00 10° NNW
ADEOS 4.4 16:27:26 10° ESE 16:31:51 29° ENE 16:36:16 10° N
Cosmos 1666 2.5 16:29:58 10° NNW 16:33:30 86° W 16:37:02 10° S
Cosmos 1603 3.7 16:31:27 10° NNW 16:37:09 66° NE 16:42:46 10° SE
NOSS 8 (A) 4.2 16:33:58 10° SW 16:37:35 82° SE 16:39:23 22° NE
DMSP B5D2-2 4.0 16:32:43 10° NNE 16:37:57 74° ESE 16:43:09 10° S
Cosmos 1076 Rocket 4.3 16:36:26 10° NNW 16:40:43 55° W 16:44:58 10° S
Meteor 1-31 Rocket 2.6 16:39:55 10° SSE 16:43:37 89° ENE 16:47:21 10° NNW
CZ-4B R/B 4.2 16:44:59 21° ENE 16:44:59 21° ENE 16:48:05 10° NNE
SL-08 R/B 4.5 16:46:50 20° E 16:47:11 20° E 16:50:38 10° SE
SL-16 R/B 4.4 16:44:55 10° NW 16:49:43 29° WSW 16:54:29 10° SSW
ATLAS CENTAUR R/B 3.2 16:46:44 10° WNW 16:50:43 58° SW 16:58:20 10° SE
Cosmos 1602 4.0 16:48:40 10° NNW 16:52:22 65° W 16:56:04 10° S
RESURS DK-1 3.1 16:51:35 10° NNW 16:55:17 31° NE 16:56:12 28° ENE
USA 305 4.0 16:52:03 10° WNW 16:55:38 38° SW 16:59:11 10° SSE
Cosmos 1607 4.3 16:51:45 10° SW 16:58:04 65° NW 17:03:17 16° NE
CZ-4B R/B 3.3 16:54:29 10° SSE 16:59:31 74° ENE 17:04:27 10° NNW
Cosmos 1943 3.6 16:55:28 10° NW 17:01:03 67° WSW 17:06:39 10° SSE
Helios 1A 3.1 16:58:42 20° NNE 17:01:22 48° E 17:05:23 10° S
Cosmos 1782 3.2 16:58:34 10° SSE 17:02:11 37° E 17:03:03 33° ENE
Cosmos 1812 Rocket 3.5 16:58:16 10° S 17:02:33 61° E 17:06:22 13° NNE
Cosmos 1271 Rocket 4.4 16:59:58 10° N 17:01:24 19° NNE 17:01:24 19° NNE
ATLAS 2AS CENTAUR R/B 2.7 16:56:39 10° NW 17:03:38 62° NE 17:09:08 16° ESE
SMAP 4.0 17:01:49 10° S 17:06:20 51° W 17:10:55 10° NNW
NOAA 6 3.9 17:02:17 10° SSE 17:07:22 69° ENE 17:12:29 10° N
Cosmos 407 Rocket 3.6 17:07:16 10° NNW 17:12:27 77° WSW 17:17:34 10° SSE
Radarsat Rocket 3.9 17:08:05 10° SSE 17:13:54 78° ENE 17:20:07 10° NNW
Cosmos 2297 Rocket 4.1 17:10:07 10° W 17:14:29 22° NW 17:18:51 10° NNE
SOZ 4.3 17:13:18 10° WSW 17:15:35 80° SSE 17:16:20 49° E
ISS -0.5 17:18:02 10° WSW 17:19:04 11° SW 17:20:07 10° SSW
Cosmos 2251 Rocket 4.0 17:14:53 10° NNW 17:20:11 65° WSW 17:25:29 10° S
Cosmos 2219 4.4 17:15:24 10° WSW 17:20:36 38° NW 17:25:23 12° NNE
ADEOS Rocket 4.2 17:22:48 20° NNE 17:22:48 20° NNE 17:25:45 10° N
Cosmos 220 Rocket 3.8 17:19:44 10° NNW 17:24:05 78° ENE 17:27:53 13° SSE
Cosmos 1954 Rocket 3.9 17:21:49 10° NNW 17:27:05 66° ENE 17:31:27 15° SE
Cosmos 2056 Rocket 4.0 17:23:27 10° S 17:28:25 39° ESE 17:28:45 39° E
SME Rocket 4.5 17:22:33 10° SE 17:28:31 62° ENE 17:37:46 10° NNW
COSMOS 2455 4.4 17:24:43 10° SSE 17:27:03 18° SE 17:27:03 18° SE
Timation 2 Rocket 4.2 17:23:42 10° S 17:29:17 44° ESE 17:30:41 38° ENE
Cosmos 1844 4.1 17:24:10 10° S 17:29:32 41° ESE 17:30:24 39° E
COSMO-SKYMED 1 2.5 17:29:30 42° NE 17:30:50 65° ESE 17:35:09 10° S
CZ-4 R/B 4.4 17:26:59 10° SSE 17:31:05 83° WSW 17:35:11 10° NNW
Lacrosse 5 2.4 17:26:33 10° SSW 17:31:12 38° SE 17:31:42 37° ESE
Cosmos-2242 3.6 17:27:55 10° SSW 17:32:11 56° WNW 17:36:22 11° N
Lacrosse 4 Rocket 3.4 17:28:56 10° NW 17:32:46 31° WSW 17:36:30 10° S
Cosmos 1833 Rocket 3.6 17:29:11 10° NNW 17:33:48 30° NE 17:33:48 30° NE
Meteor 1-14 Rocket 4.4 17:30:56 10° N 17:36:08 43° ENE 17:36:08 43° ENE
Cosmos 1553 Rocket 3.9 17:32:10 10° N 17:38:28 61° ENE 17:44:37 10° SSE
USA 234 3.3 17:37:35 37° ENE 17:40:11 62° SE 17:46:39 10° SW
APEX 3.8 17:37:57 10° SW 17:39:57 37° WSW 17:39:57 37° WSW
Meteor 2-2 Rocket 4.4 17:36:09 10° SSW 17:41:56 79° WNW 17:47:53 10° N
PAYLOAD B 4.4 17:42:07 47° ENE 17:42:16 47° ENE 17:47:35 10° N
Cosmos 2221 3.4 17:38:30 10° S 17:41:02 33° SSE 17:41:02 33° SSE
Cosmos 2344 3.4 17:36:09 10° SSW 17:43:36 75° SE 17:47:04 35° NE
Cosmos 1190 Rocket 4.2 17:39:13 10° NNW 17:44:32 72° WSW 17:49:47 10° SSE
Cosmos 1812 4.0 17:41:54 10° SW 17:45:20 37° WNW 17:47:41 18° NNW
Cosmos 1818 3.4 17:41:59 10° SW 17:47:25 81° SE 17:48:46 53° NE
Cosmos 2026 Rocket 4.0 17:42:41 10° S 17:48:59 89° W 17:55:24 10° N
Cosmos 1371 Rocket 4.0 17:47:27 10° S 17:52:32 60° ESE 17:52:32 60° ESE
NOAA 15 4.4 17:49:53 10° SSE 17:55:10 80° ENE 18:00:30 10° NNW
Cosmos 44 Rocket 4.3 17:53:40 10° NW 17:57:40 36° N 17:57:40 36° N
CZ-4B R/B 4.0 18:01:43 36° NNE 18:01:43 36° NNE 18:05:16 10° N
Cosmos 1844 Rocket 2.5 17:55:52 10° SSW 18:01:25 77° ESE 18:02:02 68° ENE
Cosmos 2263 Rocket 3.5 17:56:48 10° WSW 18:01:50 34° NW 18:05:03 19° N
Meteor 1-26 Rocket 4.1 17:56:40 10° S 18:02:15 82° E 18:04:18 42° NNE
Cosmos 1766 Rocket 3.8 17:58:51 10° NNW 18:03:12 68° W 18:07:29 10° S
YAOGAN 1 3.3 18:07:02 45° NNW 18:07:02 45° NNW 18:10:06 10° NNW
Cosmos 1092 Rocket 4.2 18:00:28 10° SSW 18:06:33 67° WNW 18:12:42 10° N
Cosmos 1933 4.1 18:03:55 10° SSW 18:07:47 50° WNW 18:07:55 50° WNW
Cosmos 1420 Rocket 3.9 18:03:16 10° SSW 18:08:27 82° SE 18:08:27 82° SE
ADEOS 4.2 18:05:58 10° S 18:11:04 55° W 18:16:13 10° NNW
Cosmos 2227 Rocket 4.4 18:07:24 10° WNW 18:11:09 18° NNW 18:14:01 13° N
Cosmos 2082 Rocket 3.9 18:07:01 10° NNW 18:09:21 19° N 18:09:21 19° N
Cosmos 1624 Rocket 4.1 18:11:08 10° SSW 18:15:40 68° SSW 18:15:40 68° SSW
CZ-4B R/B 4.2 18:20:41 37° NW 18:20:41 37° NW 18:23:24 10° NNW
Cosmos 1417 Rocket 4.4 18:16:35 10° N 18:22:56 84° E 18:24:06 62° SSE
SL-08 R/B 3.8 18:25:44 56° W 18:25:44 56° W 18:29:50 10° SSW
RESURS DK-1 4.1 18:29:20 10° NW 18:31:56 31° WNW 18:31:56 31° WNW
ATLAS 2AS CENTAUR R/B 3.6 18:47:57 10° NW 18:54:20 42° WSW 18:56:38 32° SSW
Lacrosse 5 3.9 19:08:55 10° WSW 19:10:56 24° WSW 19:10:56 24° WSW
Cosmos 1833 Rocket 4.4 19:12:57 10° NW 19:15:30 27° NW 19:15:30 27° NW
USA 234 3.9 19:24:56 51° WNW 19:24:56 51° WNW 19:29:47 10° W
